Adama, Poland

3:40 AM CEST on September 24, 2017 (GMT +0200)
Adama

Weather History for 12566 - August, 2013

Change the Weather History Date:

Wednesday, August 7, 2013

  Actual Average Record
Temperature  
Mean Temperature 81 °F -  
Max Temperature 97 °F 71 °F - ()
Min Temperature 65 °F 52 °F - ()
Cooling Degree Days 16    
Growing Degree Days 31 (Base 50)    
Moisture  
Dew Point 60 °F    
Average Humidity 56    
Maximum Humidity 88    
Minimum Humidity 13    
Precipitation  
Precipitation 0.00 in 0.10 in - ()
Sea Level Pressure  
Sea Level Pressure 29.96 in    
Wind  
Wind Speed 4 mph ()    
Max Wind Speed 13 mph    
Max Gust Speed -    
Visibility 9.2 miles    
Events      
T = Trace of Precipitation, MM = Missing Value Source: Averaged Metar Reports

Daily Weather History Graph

Daily Weather History Graph

Search for Another Location

Airport or City:

Trip Planner

Search our weather history database for the weather conditions in past years. The results will help you decide how hot, cold, wet, or windy it might be!

Date:

Astronomy

Aug. 07, 2013 Rise Set
Actual Time 5:18 AM CEST 8:13 PM CEST
Civil Twilight 4:40 AM CEST 8:51 PM CEST
Nautical Twilight 3:52 AM CEST 9:39 PM CEST
Astronomical Twilight 2:51 AM CEST 10:38 PM CEST
Moon 5:59 AM CEST (8/7) 7:58 PM CEST (8/7)
Length of Visible Light 16h 10m
Length of Day
14h 55m
New Moon, 0% of the Moon is Illuminated
Aug 7
New Moon
Aug 14
First Quarter
Aug 21
Full
Aug 28
Last Quarter
Sep 5
New

Hourly Weather History & Observations

Time (CEST) Temp. Heat Index Dew Point Humidity Pressure Visibility Wind Dir Wind Speed Gust Speed Precip Events Conditions
12:00 AM 69.8 °F - 59.0 °F 68% 29.98 in - NE 4.6 mph - N/A   Clear
12:30 AM 69.8 °F - 59.0 °F 68% 29.98 in - NNE 5.8 mph - N/A   Clear
1:00 AM 68.0 °F - 59.0 °F 73% 29.98 in - NE 5.8 mph - N/A   Clear
1:30 AM 68.0 °F - 60.8 °F 78% 29.98 in - NE 4.6 mph - N/A   Clear
2:00 AM 67 °F - 60 °F 71% 29.96 in 19 mi NNE 4.5 mph - -  
2:00 AM 66.2 °F - 60.8 °F 83% 29.98 in - NE 3.5 mph - N/A   Clear
2:30 AM 66.2 °F - 59.0 °F 78% 29.98 in - NE 5.8 mph - N/A   Clear
3:00 AM 66.2 °F - 59.0 °F 78% 29.98 in - NE 4.6 mph - N/A   Clear
3:30 AM 66.2 °F - 60.8 °F 83% 29.98 in - ENE 4.6 mph - N/A   Clear
4:00 AM 66.2 °F - 60.8 °F 83% 29.98 in - ENE 2.3 mph - N/A   Clear
4:30 AM 64.4 °F - 60.8 °F 88% 29.98 in - ENE 2.3 mph - N/A   Clear
5:00 AM 65 °F - 60 °F 79% 29.97 in 19 mi NE 4.5 mph - -   Partly Cloudy
5:00 AM 64.4 °F - 60.8 °F 88% 29.98 in - NE 3.5 mph - N/A   Clear
5:30 AM 64.4 °F - 60.8 °F 88% 29.98 in - NE 3.5 mph - N/A   Clear
6:00 AM 66.2 °F - 60.8 °F 83% 29.98 in - ENE 3.5 mph - N/A   Clear
6:30 AM 68.0 °F - 60.8 °F 78% 29.95 in - NE 2.3 mph - N/A   Clear
7:00 AM 68.0 °F - 60.8 °F 78% 29.95 in - ENE 4.6 mph - N/A   Clear
7:30 AM 71.6 °F - 60.8 °F 69% 29.95 in - Variable 2.3 mph - N/A   Clear
8:00 AM 73 °F - 62 °F 60% 29.96 in 19 mi NE 4.5 mph - -  
8:00 AM 71.6 °F - 60.8 °F 69% 29.98 in - East 3.5 mph - N/A   Clear
8:30 AM 75.2 °F - 62.6 °F 65% 29.98 in - Calm Calm - N/A   Clear
9:00 AM 77.0 °F - 62.6 °F 61% 29.98 in - Variable 1.2 mph - N/A   Clear
9:30 AM 78.8 °F - 62.6 °F 57% 29.98 in - Variable 1.2 mph - N/A   Clear
10:00 AM 82.4 °F 83.9 °F 64.4 °F 54% 29.98 in - Variable 1.2 mph - N/A   Clear
10:30 AM 84.2 °F 86.6 °F 66.2 °F 55% 29.98 in - Variable 2.3 mph - N/A   Clear
11:00 AM 86 °F - 64 °F 38% 29.93 in 19 mi East 4.5 mph - -  
11:00 AM 86.0 °F 87.3 °F 64.4 °F 48% 29.98 in - Variable 2.3 mph - N/A   Clear
11:30 AM 87.8 °F 88.5 °F 62.6 °F 43% 29.98 in - SE 5.8 mph - N/A   Clear
12:00 PM 89.6 °F 90.1 °F 62.6 °F 40% 29.95 in - ESE 5.8 mph - N/A   Clear
12:30 PM 91.4 °F 91.4 °F 60.8 °F 36% 29.95 in - Variable 2.3 mph - N/A   Clear
1:00 PM 93.2 °F 91.9 °F 57.2 °F 30% 29.95 in - South 5.8 mph - N/A   Clear
1:30 PM 95.0 °F 94.4 °F 59.0 °F 30% 29.95 in 6.2 mi Variable 2.3 mph - N/A   Partly Cloudy
2:00 PM 95 °F - 50 °F 13% 29.89 in 25 mi SSW 8.9 mph - -   Scattered Clouds
2:00 PM 95.0 °F - 51.8 °F 23% 29.95 in 6.2 mi WSW 12.7 mph - N/A   Partly Cloudy
2:30 PM 96.8 °F - 51.8 °F 22% 29.95 in 6.2 mi SSW 8.1 mph - N/A   Partly Cloudy
3:00 PM 96.8 °F - 50.0 °F 20% 29.92 in 6.2 mi SSW 4.6 mph - N/A   Partly Cloudy
3:30 PM 96.8 °F - 51.8 °F 22% 29.95 in 6.2 mi West 5.8 mph - N/A   Partly Cloudy
4:00 PM 95.0 °F 93.0 °F 55.4 °F 26% 29.95 in 6.2 mi West 9.2 mph - N/A   Partly Cloudy
4:30 PM 95.0 °F 93.7 °F 57.2 °F 28% 29.95 in 6.2 mi WSW 5.8 mph - N/A   Partly Cloudy
5:00 PM 95 °F - 54 °F 17% 29.89 in 25 mi WSW 6.7 mph - -   Scattered Clouds
5:00 PM 95.0 °F 93.0 °F 55.4 °F 26% 29.95 in 6.2 mi West 5.8 mph - N/A   Partly Cloudy
5:30 PM 93.2 °F 91.9 °F 57.2 °F 30% 29.92 in 6.2 mi West 6.9 mph - N/A   Partly Cloudy
6:00 PM 93.2 °F 92.6 °F 59.0 °F 32% 29.95 in 6.2 mi NNW 5.8 mph - N/A   Partly Cloudy
6:30 PM 91.4 °F 92.1 °F 62.6 °F 38% 29.95 in 6.2 mi NNW 3.5 mph - N/A   Partly Cloudy
7:00 PM 89.6 °F 91.1 °F 64.4 °F 43% 29.95 in 6.2 mi NNE 4.6 mph - N/A   Partly Cloudy
7:30 PM 86.0 °F 87.3 °F 64.4 °F 48% 29.95 in 6.2 mi ENE 9.2 mph - N/A   Partly Cloudy
8:00 PM 84 °F - 64 °F 41% 29.91 in 25 mi ENE 6.7 mph - -   Scattered Clouds
8:00 PM 84.2 °F 85.6 °F 64.4 °F 51% 29.95 in 6.2 mi ENE 5.8 mph - N/A   Partly Cloudy
8:30 PM 80.6 °F 81.8 °F 62.6 °F 54% 29.95 in 6.2 mi NE 10.4 mph - N/A   Partly Cloudy
9:00 PM 78.8 °F - 64.4 °F 61% 29.95 in 6.2 mi NE 6.9 mph - N/A   Partly Cloudy
9:30 PM 77.0 °F - 64.4 °F 65% 29.98 in - Variable 2.3 mph - N/A   Clear
10:00 PM 75.2 °F - 64.4 °F 69% 29.98 in - Calm Calm - N/A   Clear
10:30 PM 73.4 °F - 64.4 °F 73% 29.98 in - Calm Calm - N/A   Clear
11:00 PM 72 °F - 64 °F 69% 29.95 in 19 mi NNE 2.2 mph - -   Clear
11:00 PM 71.6 °F - 64.4 °F 78% 29.98 in - Variable 2.3 mph - N/A   Clear
11:30 PM 71.6 °F - 64.4 °F 78% 29.98 in - Variable 2.3 mph - N/A   Clear